Regional Weather Roundup
Issued by NWS Newport/Morehead, NC

Current Version | Previous Version | Graphics & Text | Print | Product List | Glossary Off
Versions: 1 2 3 4 5 6 7 8 9 10 11 12 13 14 15 16 17 18 19 20 21 22 23 24 25 26 27 28 29 30 31 32 33 34 35 36 37 38 39 40 41 42 43 44 45 46 47 48 49 50

000
ASUS42 KMHX 050425
RWRMHX
WEATHER ROUNDUP FOR EASTERN NORTH CAROLINA
NATIONAL WEATHER SERVICE NEWPORT/MOREHEAD CITY NC
1200 AM EDT SAT SEP 05 2015

NOTE: "FAIR" INDICATES FEW OR NO CLOUDS BELOW 12,000 FEET
WITH NO SIGNIFICANT WEATHER AND/OR OBSTRUCTIONS TO VISIBILITY

NCZ015>017-031-032-045>047-102-103-050500-
NORTH COAST

CITY           SKY/WX    TMP DP  RH WIND       PRES   REMARKS
EDENTON        CLEAR     71  69  94 N5        30.06R FOG
ELIZABETH CITY CLEAR     76  71  85 NE7       30.05S
KITTY HAWK     PTCLDY    78  73  83 NE7       30.03R
MANTEO         PTCLDY    78  73  84 E12       30.03S

$$

NCZ045>047-081-094-103-104-050500-
CENTRAL COAST

CITY           SKY/WX    TMP DP  RH WIND       PRES   REMARKS
FRISCO         PTCLDY    79  72  79 E9        30.00S
SWANQUARTER      N/A     75 N/A N/A NE3       29.97F

$$

NCZ095-097-098-100-101-050500-
SOUTHERN COAST

CITY           SKY/WX    TMP DP  RH WIND       PRES   REMARKS
BEAUFORT       PTCLDY    76  74  93 N8        30.00S
CEDAR ISLAND     N/A     81 N/A N/A NE20      30.06S
JACKSONVILLE   PTCLDY    76  71  85 N8        30.01S
PINEY ISLAND   PTCLDY   N/A N/A N/A NE13      30.00F
WILMINGTON     CLOUDY    74  69  85 CALM      30.01S


$$

NCZ011>013-027>030-043-044-078>080-089-090>093-098-050500-
COASTAL PLAIN

CITY           SKY/WX    TMP DP  RH WIND       PRES   REMARKS
AHOSKIE        PTCLDY    70  68  94 CALM      30.08R
CLINTON        PTCLDY    71  71  99 CALM      30.05R FOG
ELIZABETHTOWN  MOCLDY    72  70  93 CALM      30.04S
GOLDSBORO      PTCLDY    72  69  92 N5        30.03S
GREENVILLE     CLEAR     72  72 100 NE6       30.07R FOG
HAVELOCK       PTCLDY    76  73  91 N8        30.03R
KENANSVILLE      N/A     72  70  92 CALM      30.05R
KINSTON        CLEAR     73  71  92 N5        30.05R
NEW BERN       CLEAR     74  71  91 N5        30.04S FOG
RICHLANDS      PTCLDY    73  66  78 N3        30.03R
ROCKY MOUNT    CLEAR     72  70  93 N6        30.07R FOG
WASHINGTON     CLEAR     72  70  94 NE5       30.05R FOG
WHITEVILLE     CLOUDY    71  69  93 CALM      30.03R FOG

$$

AMZ130-135-150-152-154-156-158-170-250-252-270-ANZ085-086-088-633-658-670-050500-
MARINE OBSERVATIONS

STATION/POSITION TIME  TEMP    WIND        PRES    WAVE   SWELL
                       AIR SEA DIR/SP/G            HT/PER HT/PER
                 (UTC) (F)     (DEG/KT/KT) (MB)    (FT/S) (FT/S)
CHESAPEAKE LIGHT 0400   79      50/ 14/ 16 1018.6
64 E VA BEACH    0350   80 80   50/ 17/ 21 1016.6    4/ 5   2/10
DUCK             0400   80 80   50/ 17/ 19 1016.6
2 E DUCK         0311      80                N/A     3/ 5
OREGON INLET     0400   79 82   40/ 14/ 17 1016.4
13E OREGON INLT  0400      80                N/A     4/ 5
HATTERAS CG      0400   80 84   70/  9/ 14 1015.5
DIAMOND BUOY     0350   80 84   40/ 12/ 16 1015.5    3/ 4   2/14
CAPE LOOKOUT     0400   81      50/ 16/ 17 1015.5
BEAUFORT LAB     0400   78 83   20/  7/  9 1015.3
30 SE NEW RVR IN 0308   82 83   60/ 12/ 14 1015.9
30 SE NEW RVR IN 0325      83                N/A     1/11
27 SE WRIGHTSVLE 0400   78 83   20/  8/ 10   N/A
5 SE WRIGHTSVLE  0308   81 82  350/  6/ 10 1016.0
225 S CAPE HAT   0350   82 84   30/ 10/ 12 1014.3    1/10   2/10
41 SE CHARLESTON 0350   82 85   30/  4/  6 1015.6    1/11   2/11

$$


USA.gov is the U.S. government's official web portal to all federal, state and local government web resources and services.